Regional Weather Roundup
Issued by NWS Newport/Morehead, NC

Current Version | Previous Version | Graphics & Text | Print | Product List | Glossary Off
Versions: 1 2 3 4 5 6 7 8 9 10 11 12 13 14 15 16 17 18 19 20 21 22 23 24 25 26 27 28 29 30 31 32 33 34 35 36 37 38 39 40 41 42 43 44 45 46 47 48 49 50
000 ASUS42 KMHX 252025 RWRMHX WEATHER ROUNDUP FOR EASTERN NORTH CAROLINA NATIONAL WEATHER SERVICE NEWPORT/MOREHEAD CITY NC 400 PM EDT WED MAY 25 2016 NOTE: "FAIR" INDICATES FEW OR NO CLOUDS BELOW 12,000 FEET WITH NO SIGNIFICANT WEATHER AND/OR OBSTRUCTIONS TO VISIBILITY NCZ015>017-031-032-045>047-102-103-252100- NORTH COAST CITY SKY/WX TMP DP RH WIND PRES REMARKS EDENTON SUNNY 87 55 32 W6 30.16F ELIZABETH CITY MOSUNNY 86 58 38 SW14 30.15F KITTY HAWK CLEAR 90 57 32 S5 30.15F MANTEO SUNNY 81 65 59 S10 30.17F $$ NCZ045>047-081-094-103-104-252100- CENTRAL COAST CITY SKY/WX TMP DP RH WIND PRES REMARKS FRISCO SUNNY 77 67 71 SW8 30.20F $$ NCZ095-097-098-100-101-252100- SOUTHERN COAST CITY SKY/WX TMP DP RH WIND PRES REMARKS BEAUFORT SUNNY 77 68 73 S13 30.21S CEDAR ISLAND NOT AVBL JACKSONVILLE SUNNY 83 58 42 S14 30.18F PINEY ISLAND PTCLDY N/A N/A N/A SW13 30.19F WILMINGTON SUNNY 85 58 39 S10 30.19S $$ NCZ011>013-027>030-043-044-078>080-089-090>093-098-252100- COASTAL PLAIN CITY SKY/WX TMP DP RH WIND PRES REMARKS AHOSKIE SUNNY 85 55 35 CALM 30.15F CLINTON SUNNY 87 58 36 CALM 30.18S ELIZABETHTOWN MOSUNNY 87 55 33 SW6 30.18F GOLDSBORO PTSUNNY 87 54 31 SW12 30.16F GREENVILLE SUNNY 88 55 33 SW5 30.17F HAVELOCK MOSUNNY 83 57 41 S12 30.19F KENANSVILLE MOSUNNY 87 51 28 W7 30.18S KINSTON MOSUNNY 88 54 31 S6 30.18F NEW BERN MOSUNNY 87 58 37 S10 30.18F RICHLANDS PTSUNNY 87 57 35 SW8 30.18F ROCKY MOUNT MOSUNNY 87 56 34 SW8 30.16F WASHINGTON SUNNY 87 56 35 W8 30.16F WHITEVILLE PTSUNNY 87 56 33 SW5 30.18S $$ AMZ130-135-150-152-154-156-158-170-250-252-270-ANZ085-086-088-633-658-670-252100- MARINE OBSERVATIONS STATION/POSITION TIME TEMP WIND PRES WAVE SWELL AIR SEA DIR/SP/G HT/PER HT/PER (UTC) (F) (DEG/KT/KT) (MB) (FT/S) (FT/S) CHESAPEAKE LIGHT 2000 73 110/ 9/ 9 1021.6 64 E VA BEACH 1950 65 61 200/ 6/ 6 1021.5 2/ 9 2/ 9 DUCK 2000 82 61 220/ 8/ 9 1020.8 2 E DUCK 1911 64 N/A 2/ 8 OREGON INLET 2000 75 72 190/ 13/ 15 1021.6 13E OREGON INLT 2000 69 N/A 3/ 9 2/ 9 HATTERAS CG 2000 74 69 200/ 8/ 10 1022.2 DIAMOND BUOY 1950 73 72 220/ 8/ 10 1022.8 2/ 9 2/ 9 CAPE LOOKOUT 2000 76 210/ 11/ 13 1022.5 BEAUFORT LAB 2000 75 69 200/ 12/ 15 1022.0 30 SE NEW RVR IN 1925 74 N/A 2/ 9 27 SE WRIGHTSVLE 2008 76 74 210/ 8/ 10 1022.7 5 SE WRIGHTSVLE 2008 75 73 200/ 12/ 16 1023.4 225 S CAPE HAT 1950 75 79 80/ 8/ 10 1023.7 3/ 7 3/ 7 41 SE CHARLESTON 1950 78 79 210/ 2/ 4 1023.4 2/ 9 2/ 9 $$

USA.gov is the U.S. government's official web portal to all federal, state and local government web resources and services.